OpenBCM V1.13 (Linux)

Packet Radio Mailbox

DB0FHN

[JN59NK Nuernberg]

 Login: GUEST





  
I0OJJ  > AMSAT    27.08.26 22:47l 331 Lines 15656 Bytes #999 (0) @ WW
BID : NWZA_IR0EQ
Read: DJ6UX GUEST
Subj: 2Line Orbital Elements
Path: DB0FHN<DB0RKB<OE6XPE<OE2XZR<OK1TOR<SR6DWH<SR1BSZ<EA2RCF<IR0EQ
Sent: 260816/0026z @:IR0EQ.ITA.EU [Rome] $:NWZA_IR0EQ

>From i0ojj@rgate.ampr.org Sun Aug 16 02:26:35 2026
Received: from rgate.ampr.org by rgate.ampr.org (JNOS2.0q.1) with SMTP
	id AA1115830 ; Sun, 16 Aug 2026 02:26:34 +0200
Received: by rgate.ampr.org with SMTP
	id AA1115827 ; Sun, 16 Aug 2026 02:26:02 +0200
Message-Id: <1115828@rgate.ampr.org>
>From: i0ojj@rgate.ampr.org

SB KEPS @ AMSAT  $ORB26228.1
2Line Orbital Elements 26228.AMSAT

QST de W1STR

AMSAT Orbital Elements for Amateur Satellites in TLE Format
>From Orbital Analysis Office
New England Sci-Tech STEM Education Center
Natick MA August 16, 2026
To all radio amateurs


These element sets describe the orbits of various satellites 
in use by the amateur radio community. For details see:
www.amsat.org/keplerian-elements-formats/

A daily update of element sets is available at:
www.amsat.org/tle/daily-bulletin.txt
or without bulletin text:
www.amsat.org/tle/dailytle.txt


AO-07
1 07530U 74089B   26227.77695519 -.00000049  00000-0 -18749-4 0  9999
2 07530 101.9918 241.6463 0012377  19.4261 155.1207 12.53699075367986
UO-11
1 14781U 84021B   26227.48570140  .00000556  00000-0  61977-4 0  9994
2 14781  97.8114 192.4208 0007488   0.7655 359.3574 14.90919348265961
LO-19
1 20442U 90005G   26227.62454803  .00000018  00000-0  23243-4 0  9994
2 20442  98.8843 251.0642 0012162  36.6336 323.5677 14.34137624910911
AO-27
1 22825U 93061C   26227.78443970  .00000041  00000-0  32760-4 0  9996
2 22825  98.6838 295.1633 0007239 287.7997  72.2395 14.30955376715523
FO-29
1 24278U 96046B   26227.53087323 -.00000048  00000-0 -10131-4 0  9992
2 24278  98.5196  68.2683 0348933 302.5483  54.2396 13.53276848481190
GO-32
1 25397U 98043D   26227.55998762  .00000008  00000-0  23837-4 0  9995
2 25397  99.0118 221.8290 0002240  66.1150 294.0262 14.24438167459785
ISS
1 25544U 98067A   26227.08368476  .00005059  00000-0  98393-4 0  9996
2 25544  51.6330   8.6029 0007564  47.5489 312.6138 15.49446478580889
NO-44
1 26931U 01043C   26227.73702601  .00000031  00000-0  42664-4 0  9994
2 26931  67.0499  90.2479 0005654 269.3782  90.6672 14.31974917298977
SO-50
1 27607U 02058C   26227.56091163  .00000453  00000-0  71311-4 0  9996
2 27607  64.5528 305.2686 0073468 251.5795 107.7314 14.83157750273260
CO-55
1 27844U 03031E   26226.97453798  .00000132  00000-0  75932-4 0  9998
2 27844  98.6759 234.7997 0009991  22.0802 338.0806 14.24366642200046
RS-22
1 27939U 03042A   26227.84488625  .00000832  00000-0  13606-3 0  9995
2 27939  98.3480  53.8993 0012586  79.9403  43.5810 14.73559758224334
CO-65
1 32785U 08021C   26227.90018266  .00003314  00000-0  20835-3 0  9999
2 32785  97.8332 210.6006 0008710 173.8273 186.3065 15.09932069994208
CO-66
1 32791U 08021J   26227.50673523  .00011210  00000-0  33683-3 0  9994
2 32791  97.7548 228.3329 0004986  98.1450 262.0357 15.34587066996382
RS-30
1 32953U 08025A   26227.81322171  .00000092  00000-0  58940-3 0  9991
2 32953  82.5079 318.3564 0019814 178.2733 181.8418 12.43182097827105
SRMSAT
1 37841U 11058D   26227.82472852  .00000325  00000-0  32574-4 0  9990
2 37841  19.9726  58.4887 0011740 139.9905 346.6154 14.11586377766256
ZACUBE-1
1 39417U 13066B   26227.79102530  .00003402  00000-0  26270-3 0  9995
2 39417  97.8012 190.4098 0042673  53.1896 307.3231 15.01525106689679
Delfi-N3xt
1 39428U 13066N   26227.73095716  .00005729  00000-0  49202-3 0  9992
2 39428  97.8303 148.0004 0074049  10.2071 350.0633 14.95730359683520
GOMX-1
1 39430U 13066Q   26227.83207300  .00000709  00000-0  11338-3 0  9992
2 39430  97.6446  64.5338 0126776 245.6688 113.1239 14.69603549678675
LO-74
1 39440U 13066AA  26227.80678147  .00001710  00000-0  16072-3 0  9994
2 39440  97.8939 177.0657 0056761 187.9846 172.0476 14.94114433685895
AO-73
1 39444U 13066AE  26227.50369139  .00004071  00000-0  24962-3 0  9993
2 39444  97.8332 200.2357 0035914   5.2182 354.9414 15.10209590688618
DTUSAT-2
1 40030U 14033W   26227.46841969  .00003864  00000-0  20677-3 0  9990
2 40030  98.0896 229.0010 0008933  43.7716 316.4222 15.15686459661669
LILACSAT-2
1 40908U 15049K   26227.83150554  .00012462  00000-0  19895-3 0  9990
2 40908  97.4599 267.0045 0007564  48.9588 311.2318 15.53315926605004
Lapan A3
1 41603U 16040E   26227.84060880  .00001692  00000-0  54592-4 0  9995
2 41603  97.1536 222.0537 0010903 151.7313 208.4524 15.33435009563958
CAS-2T
1 41847U 16066G   26227.73017858  .00000264  00000-0  47202-4 0  9992
2 41847  98.3789 302.7853 0340339 309.0267  48.1075 14.44805670513392
TechnoSat
1 42829U 17042E   26227.41818960  .00001128  00000-0  82969-4 0  9995
2 42829  97.4357  22.8592 0015859 249.6030 110.3494 15.05247423495612
AO-91
1 43017U 17073E   26227.59477161  .00005412  00000-0  23214-3 0  9999
2 43017  97.4610  93.5981 0149866 122.9918 238.5820 15.13457934474370
S-Net D
1 43186U 18014G   26227.69806568  .00002564  00000-0  13255-3 0  9999
2 43186  97.5287 132.1166 0008470 159.4958 200.6617 15.17145956467780
S-Net B
1 43187U 18014H   26227.71071381  .00002407  00000-0  12475-3 0  9999
2 43187  97.5295 132.1176 0009224 156.0502 204.1162 15.17114584467784
S-Net A
1 43188U 18014J   26227.69662000  .00002619  00000-0  13530-3 0  9999
2 43188  97.5304 132.3238 0009105 156.5559 203.6091 15.17154250467781
S-Net C
1 43189U 18014K   26227.71494149  .00002379  00000-0  12334-3 0  9994
2 43189  97.5323 132.4259 0010651 151.2912 208.8909 15.17104594466331
Ten-Koh
1 43677U 18084G   26227.50644575  .00000918  00000-0  72924-4 0  9999
2 43677  98.0738  62.3746 0008504 282.3009  77.7263 15.03135686425071
PO-101
1 43678U 18084H   26227.85089941  .00000617  00000-0  53935-4 0  9995
2 43678  98.1202  66.6826 0010658 337.9472  22.1290 15.00648583425165
QO-100
1 43700U 18090A   26227.85392115  .00000133  00000-0  00000+0 0  9991
2 43700   0.0143 101.7147 0002564  77.5285 118.1908  1.00273788 28279
MinXSS-2
1 43758U 18099A   26227.78390918  .00029595  00000-0  51080-3 0  9995
2 43758  97.4485 305.9822 0006835  58.9973 301.1949 15.50946613423352
AO-95
1 43770U 18099N   26227.69812995  .00006726  00000-0  24987-3 0  9990
2 43770  97.4333 287.7584 0009963 131.5101 228.6995 15.27839832422302
SNUSat 2
1 43782U 18099AA  26226.70514211  .00004613  00000-0  20097-3 0  9995
2 43782  97.4014 279.2079 0011924  92.1244 268.1359 15.22634922421935
SnugLite
1 43784U 18099AC  26227.67983157  .00006495  00000-0  23810-3 0  9999
2 43784  97.3817 281.4084 0004596  87.7468 272.4298 15.28323222422400
ITASat 1
1 43786U 18099AE  26227.68869517  .00003780  00000-0  17983-3 0  9993
2 43786  97.3983 278.0252 0013659 139.0693 221.1570 15.19701601421949
EAGLET 1
1 43790U 18099AJ  26227.70171713  .00001912  00000-0  11075-3 0  9996
2 43790  97.4189 275.7944 0012307 134.3327 225.8916 15.13323552421333
ESEO
1 43792U 18099AL  26227.84594172  .00001429  00000-0  10632-3 0  9992
2 43792  97.3941 262.6736 0013205 126.2557 233.9891 15.04398766420775
JO-97
1 43803U 18099AX  26227.43437985  .00010643  00000-0  31155-3 0  9999
2 43803  97.4078 290.5350 0006791  70.6068 289.5909 15.35399523422712
Suomi 100
1 43804U 18099AY  26227.69239156  .00007236  00000-0  25386-3 0  9991
2 43804  97.4137 287.9029 0011209  74.8583 285.3896 15.29675245422518
ISAT
1 43879U 18111D   26227.82131036  .00137786  00000-0  76358-3 0  9990
2 43879  97.5830 168.2113 0008870 102.3253 257.9007 15.79116817420536
UWE-4
1 43880U 18111E   26227.75296308  .00026811  00000-0  48471-3 0  9999
2 43880  97.5829 159.0467 0010024 102.6844 257.5527 15.49620993419992
Sparrow
1 43881U 18111F   26227.57519963  .03190521  25883-5  10599-2 0  9998
2 43881  97.5942 175.4383 0011181 183.5895 176.5318 16.25696885420805
Prox-1
1 44339U 19036A   26227.87674586  .00008607  00000-0  80345-3 0  9996
2 44339  23.9949  75.1142 0006177   8.9861 351.0749 14.91846796382393
Taurus 1
1 44530U 19059C   26227.84141531  .00004588  00000-0  72834-3 0  9998
2 44530  98.6470  36.4148 0009617 121.7697 238.4447 14.72636567367425
TO-108
1 44881U 19093C   26227.81660234  .00000539  00000-0  66733-4 0  9992
2 44881  97.7494 298.5849 0012077 249.0764 110.9159 14.86596440360272
RS-44
1 44909U 19096E   26227.73445416  .00000030  00000-0  75423-4 0  9992
2 44909  82.5227 300.1436 0217487   5.4615 354.8783 12.79748811309964
SALSAT
1 46495U 20068K   26227.58778976  .00004326  00000-0  14917-3 0  9990
2 46495  97.8876 234.3112 0011464  94.0407 266.2143 15.30538865324446
CSS (TIANHE-1)
1 48274U 21035A   26227.74085052  .00000084  00000-0  52035-5 0  9998
2 48274  41.4707 320.4913 0001117 254.0275 106.0441 15.59020376302466
TeikyoSat 4
1 49396U 21102B   26227.64425010  .00000790  00000-0  52749-4 0  9995
2 49396  97.3654 254.8159 0013768  88.9103 271.3704 15.09686660261690
Z-Sat
1 49399U 21102E   26227.83543250  .00002182  00000-0  10809-3 0  9993
2 49399  97.3292 261.3532 0017712  43.4003 316.8622 15.18663633262495
KOSEN 1
1 49402U 21102H   26227.83045872  .00004515  00000-0  16970-3 0  9992
2 49402  97.3144 268.8471 0013234   4.8539 355.2827 15.27588090263128
HO-113
1 50466U 21131B   26227.82347565  .00000291  00000-0  10345-3 0  9996
2 50466  98.4986 319.8910 0002887 284.1498  75.9370 14.41403892243702
SNUGLITE 2
1 52899U 22065F   26227.40822970  .00000442  00000-0  92677-4 0  9994
2 52899  98.2282  12.1630 0007259 187.9970 172.1118 14.64439441219668
UmKA 1 (RS40S)
1 57172U 23091G   26227.62707161  .00003038  00000-0  13842-3 0  9991
2 57172  97.5001 286.1052 0010777 271.5535  88.4466 15.21395805173040
CubeBel-2 (EU11S)
1 57175U 23091K   26227.83586466  .00008067  00000-0  27637-3 0  9994
2 57175  97.4999 291.6285 0007752 259.3236 100.7132 15.30449566173422
RS-38S
1 57189U 23091Z   26227.85108065  .00011365  00000-0  30880-3 0  9995
2 57189  97.5045 298.5949 0006498 202.5336 157.5624 15.37718605173853
